Flag for Norway Weather past 2 weeks in Sandnessjøen, Norway

Now
27 °F

Light snow. Broken clouds.


Feels Like: 18 °F
Forecast: 29 / 33 °F
Wind: 8 mph from North

Location: Sandnessjoen / Stokka

Current Time: Dec 22, 2014 at 11:40:08 AM

Latest Report: Dec 22, 2014 at 10:50 AM


Visibility: N/A

Pressure: 29.03 "Hg

Humidity: 80%

Dew point: 21 °F

Location of SandnessjøenLocation

Historic Weather in Sandnessjøen — Graph

°F

Sandnessjøen temperature yesterday

Maximum temperature yesterday: 30 °F (at 2:50 PM)
Minimum temperature yesterday: 25 °F (at 12:20 PM)
Average temperature yesterday: 28 °F

Past Weeks' High & Low Weather Summary

 TemperatureHumidityPressure
High45 °F (Dec 15, 4:50 AM)100% (Dec 16, 7:50 PM)29.74 "Hg (Dec 16, 7:50 PM)
Low25 °F (Dec 21, 12:20 PM)36% (Dec 14, 6:20 PM)28.82 "Hg (Dec 11, 4:50 AM)
Average35 °F73%29.11 "Hg
* Reported Dec 7 11:20 AM — Dec 22 10:20 AM, Sandnessjøen, Weather by CustomWeather, © 2014

Note: Actual official high and low records may vary slightly from our data, if they occured in-between our weather recording intervals... More about our weather records

Advertising

Sandnessjøen weather history for previous 24 hours

 ConditionsComfort  
Time TempWeatherWind HumidityBarometerVisibility
10:20 AM
Dec 22
N/ALight snow.13 mphN/A29.03 "Hg1 mi
9:50 AMN/ALight snow.13 mphN/A29.03 "Hg2 mi
9:20 AM27 °FLight snow. Ice fog.14 mph80%29.06 "Hg2 mi
8:50 AM27 °FLight snow. Passing clouds.10 mph69%29.06 "Hg4 mi
8:20 AM28 °FLight snow. Passing clouds.16 mph59%29.03 "HgN/A
7:50 AM28 °FLight snow. Passing clouds.17 mph59%29.06 "HgN/A
7:20 AM28 °FClear.17 mph55%29.06 "Hg10 mi
6:50 AM28 °FClear.13 mph51%29.06 "Hg10 mi
6:20 AM28 °FClear.16 mph51%29.06 "Hg10 mi
5:50 AM27 °FClear.12 mph54%29.06 "Hg10 mi
5:20 AM27 °FPassing clouds.15 mph54%29.09 "HgN/A
10:50 PM
Dec 21
30 °FPassing clouds.16 mph51%29.30 "HgN/A
10:20 PM30 °FPassing clouds.8 mph51%29.30 "HgN/A
9:50 PM28 °FPassing clouds.9 mph55%29.36 "HgN/A
9:20 PM27 °FPassing clouds.10 mph64%29.36 "HgN/A
8:50 PM30 °FPassing clouds.6 mph64%29.36 "HgN/A
8:20 PM25 °FPassing clouds.5 mph80%29.36 "HgN/A
7:50 PM28 °FPassing clouds.9 mph74%29.36 "HgN/A
7:20 PM28 °FPassing clouds.9 mph80%29.39 "HgN/A
6:50 PM28 °FPassing clouds.12 mph80%29.42 "HgN/A
6:20 PM28 °FPassing clouds.10 mph86%29.42 "HgN/A
5:50 PM28 °FPassing clouds.9 mph93%29.42 "HgN/A
5:20 PM30 °FPassing clouds.8 mph86%29.42 "HgN/A
4:50 PM28 °FPassing clouds.6 mph93%29.45 "HgN/A
4:20 PM25 °FPassing clouds.3 mph86%29.45 "HgN/A
3:50 PM28 °FPassing clouds.5 mph86%29.45 "HgN/A
3:20 PM28 °FPassing clouds.5 mph86%29.47 "HgN/A
2:50 PM30 °FPassing clouds.6 mph86%29.47 "HgN/A
2:20 PM28 °FPassing clouds.8 mph80%29.47 "HgN/A
1:50 PM27 °FClear.1 mph80%29.47 "Hg10 mi
1:20 PM27 °FSunny.3 mph93%29.47 "Hg10 mi
12:50 PM25 °FSunny.2 mph80%29.47 "Hg10 mi
12:20 PM25 °FSunny.3 mph86%29.47 "Hg10 mi
Weather by CustomWeather, © 2014

See weather overviewHow to use our weather pages